JE4YIZ-13 Weather Reports


Display with metric or nautical units.
time (UTC)temp
F
wind
direction
speed
MPH
gust
MPH
rain 1hr
in
rain 24hr
in
rain mn
in
humidity
%
barometer
mb
20260507214625 66 204 1.0 12.0 0.00 0.00 0.00 79 1008.4
20260507214126 66 143 4.0 12.0 0.00 0.00 0.00 79 1008.5
20260507213636 66 158 3.0 11.0 0.00 0.00 0.00 79 1008.5
20260507213117 66 187 3.0 10.0 0.00 0.00 0.00 78 1008.4
20260507212626 66 95 4.0 12.0 0.00 0.00 0.00 78 1008.4
20260507212135 66 124 5.0 12.0 0.00 0.00 0.00 78 1008.4
20260507211620 66 138 3.0 8.0 0.00 0.00 0.00 78 1008.2
20260507211130 66 142 2.0 7.0 0.00 0.00 0.00 78 1008.1
20260507210634 66 207 3.0 7.0 0.00 0.00 0.00 78 1008.2
20260507210123 66 155 1.0 6.0 0.00 0.00 0.00 78 1008.2
20260507205654 66 181 2.0 8.0 0.00 0.00 0.00 78 1008.1
20260507205115 66 138 2.0 8.0 0.00 0.00 0.00 78 1008.2
20260507204615 66 176 3.0 8.0 0.00 0.00 0.00 77 1008.1
20260507204121 66 137 3.0 12.0 0.00 0.00 0.00 77 1008.2
20260507203652 66 122 3.0 12.0 0.00 0.00 0.00 77 1008.1
20260507203113 66 136 2.0 10.0 0.00 0.00 0.00 78 1008.2
20260507202621 66 129 3.0 12.0 0.00 0.00 0.00 78 1008.0
20260507202132 66 198 3.0 11.0 0.00 0.00 0.00 79 1008.1
20260507201614 65 145 4.0 9.0 0.00 0.00 0.00 80 1008.0
20260507201113 65 230 2.0 9.0 0.00 0.00 0.00 81 1007.9
20260507200623 65 159 3.0 9.0 0.00 0.00 0.00 81 1007.8
20260507200128 65 153 3.0 9.0 0.00 0.00 0.00 82 1007.9
20260507195658 65 133 1.0 7.0 0.00 0.00 0.00 82 1007.8
20260507195140 65 123 2.0 6.0 0.00 0.00 0.00 83 1008.0
20260507194628 64 146 0.0 3.0 0.00 0.00 0.00 83 1008.0
20260507194137 64 199 1.0 3.0 0.00 0.00 0.00 84 1007.9
20260507193620 64 155 0.0 3.0 0.00 0.00 0.00 84 1008.0
20260507193128 64 173 1.0 2.0 0.00 0.00 0.00 85 1007.9
20260507192632 64 171 0.0 2.0 0.00 0.00 0.00 85 1007.9
20260507192114 64 166 1.0 2.0 0.00 0.00 0.00 86 1007.9
20260507191625 64 170 0.0 2.0 0.00 0.00 0.00 87 1007.9
20260507191136 63 171 0.0 2.0 0.00 0.00 0.00 87 1008.0
20260507190620 63 158 0.0 2.0 0.00 0.00 0.00 88 1008.0
20260507190128 63 165 0.0 2.0 0.00 0.00 0.00 88 1008.1
20260507185633 63 165 1.0 2.0 0.00 0.00 0.00 88 1008.0
20260507185121 62 148 1.0 2.0 0.00 0.00 0.00 88 1007.7
20260507184612 62 165 0.0 0.0 0.00 0.00 0.00 88 1007.5
20260507184111 62 165 0.0 0.0 0.00 0.00 0.00 88 1007.7
20260507183626 62 165 0.0 0.0 0.00 0.00 0.00 88 1007.6
20260507183157 62 165 0.0 0.0 0.00 0.00 0.00 88 1007.6
20260507182622 62 165 0.0 0.0 0.00 0.00 0.00 88 1007.7
20260507182135 62 165 0.0 0.0 0.00 0.00 0.00 88 1007.7
20260507181622 62 165 0.0 0.0 0.00 0.00 0.00 87 1007.7
20260507181134 62 165 0.0 0.0 0.00 0.00 0.00 87 1007.6
20260507180639 62 165 0.0 0.0 0.00 0.00 0.00 87 1007.6
20260507180126 62 165 0.0 0.0 0.00 0.00 0.00 87 1007.6
20260507175637 62 165 0.0 0.0 0.00 0.00 0.00 87 1007.6
20260507175120 63 165 0.0 0.0 0.00 0.00 0.00 87 1007.7
20260507174653 63 165 0.0 0.0 0.00 0.00 0.00 87 1007.8
20260507174117 63 167 0.0 0.0 0.00 0.00 0.00 87 1007.7
20260507173619 63 167 0.0 0.0 0.00 0.00 0.00 87 1008.1
20260507173132 63 167 0.0 0.0 0.00 0.00 0.00 87 1008.0
20260507172624 63 167 0.0 0.0 0.00 0.00 0.00 87 1008.0
20260507172120 63 167 0.0 0.0 0.00 0.00 0.00 87 1008.0
20260507171624 63 167 0.0 0.0 0.00 0.00 0.00 87 1008.0
20260507171135 63 167 0.0 0.0 0.00 0.00 0.00 87 1008.1
20260507170620 63 167 0.0 0.0 0.00 0.00 0.00 86 1008.2
20260507170150 63 167 0.0 0.0 0.00 0.00 0.00 86 1008.5
20260507165613 63 167 0.0 0.0 0.00 0.00 0.00 86 1008.4
20260507165115 63 167 0.0 0.0 0.00 0.00 0.00 86 1008.5
20260507164645 63 167 0.0 0.0 0.00 0.00 0.00 86 1008.6
20260507164157 63 167 0.0 0.0 0.00 0.00 0.00 86 1008.6
20260507163640 63 167 0.0 0.0 0.00 0.00 0.00 86 1008.5
20260507163131 63 167 0.0 0.0 0.00 0.00 0.00 86 1008.6
20260507162617 63 167 0.0 0.0 0.00 0.00 0.00 86 1008.7
20260507162129 63 167 0.0 0.0 0.00 0.00 0.00 86 1008.8
20260507161638 63 167 0.0 0.0 0.00 0.00 0.00 85 1008.9
20260507161120 63 167 0.0 0.0 0.00 0.00 0.00 85 1008.8
20260507160631 63 167 0.0 0.0 0.00 0.00 0.00 85 1008.7
20260507160115 63 167 0.0 0.0 0.00 0.00 0.00 85 1008.7
20260507155626 63 167 0.0 0.0 0.00 0.00 0.00 85 1008.8
20260507155137 63 167 0.0 0.0 0.00 0.00 0.00 85 1009.0
20260507154643 63 167 0.0 0.0 0.00 0.00 0.00 85 1008.9
20260507154134 63 166 0.0 0.0 0.00 0.00 0.00 85 1009.0
20260507153619 63 167 0.0 0.0 0.00 0.00 0.00 84 1009.1
20260507152620 63 167 0.0 0.0 0.00 0.00 0.00 84 1009.3
20260507152153 63 167 0.0 0.0 0.00 0.00 0.00 84 1009.4
20260507151635 64 167 0.0 0.0 0.00 0.00 0.00 84 1009.4
20260507151126 64 167 0.0 0.0 0.00 0.00 0.00 84 1009.4
20260507150613 64 167 0.0 0.0 0.00 0.00 0.00 83 1009.5
20260507150125 64 167 0.0 0.0 0.00 0.00 0.00 83 1009.5
20260507145611 64 167 0.0 0.0 0.00 0.00 0.00 83 1009.4
20260507145135 64 167 0.0 0.0 0.00 0.00 0.00 83 1009.5
20260507144644 64 167 0.0 0.0 0.00 0.00 0.00 83 1009.5
20260507144156 64 166 0.0 0.0 0.00 0.00 0.00 83 1009.4
20260507143622 64 167 0.0 0.0 0.00 0.00 0.00 83 1009.3
20260507143132 64 167 0.0 0.0 0.00 0.00 0.00 83 1009.3
20260507142616 64 167 0.0 0.0 0.00 0.00 0.00 83 1009.4
20260507142128 64 167 0.0 0.0 0.00 0.00 0.00 83 1009.7
20260507141611 64 167 0.0 0.0 0.00 0.00 0.00 83 1009.7
20260507141144 64 167 0.0 0.0 0.00 0.00 0.00 83 1009.6
20260507140614 64 167 0.0 0.0 0.00 0.00 0.00 82 1009.6
20260507140121 64 167 0.0 0.0 0.00 0.00 0.00 82 1009.6
20260507135656 64 167 0.0 0.0 0.00 0.00 0.00 82 1009.6
20260507135143 64 167 0.0 0.0 0.00 0.00 0.00 82 1009.6
20260507134633 64 167 0.0 0.0 0.00 0.00 0.00 82 1009.5
20260507134117 64 167 0.0 0.0 0.00 0.00 0.00 82 1009.5
20260507133630 64 167 0.0 0.0 0.00 0.00 0.00 82 1009.6
20260507133113 64 166 0.0 0.0 0.00 0.00 0.00 82 1009.5
20260507132616 64 167 0.0 0.0 0.00 0.00 0.00 82 1009.3
20260507132147 64 179 0.0 0.0 0.00 0.00 0.00 82 1009.2
20260507131612 64 179 0.0 0.0 0.00 0.00 0.00 82 1009.3
20260507131123 64 179 0.0 0.0 0.00 0.00 0.00 82 1009.3
20260507130636 64 179 0.0 0.0 0.00 0.00 0.00 82 1009.3
20260507130120 64 179 0.0 0.0 0.00 0.00 0.00 81 1009.5
20260507125634 64 179 0.0 0.0 0.00 0.00 0.00 81 1009.6
20260507125143 64 179 0.0 0.0 0.00 0.00 0.00 81 1009.6
20260507124635 64 179 0.0 0.0 0.00 0.00 0.00 81 1009.7
20260507124119 64 179 0.0 0.0 0.00 0.00 0.00 81 1009.7
20260507123654 64 179 0.0 0.0 0.00 0.00 0.00 81 1009.7
20260507123137 64 179 0.0 0.0 0.00 0.00 0.00 82 1009.7
20260507122627 64 179 0.0 0.0 0.00 0.00 0.00 81 1009.8
20260507122111 64 179 0.0 0.0 0.00 0.00 0.00 81 1009.6
20260507121625 64 179 0.0 0.0 0.00 0.00 0.00 80 1009.7
20260507121137 65 179 0.0 0.0 0.00 0.00 0.00 80 1009.5
20260507120620 65 179 0.0 0.0 0.00 0.00 0.00 80 1009.4
20260507115615 65 181 0.0 0.0 0.00 0.00 0.00 80 1009.5
20260507115125 66 181 0.0 2.0 0.00 0.00 0.00 80 1009.4
20260507114656 66 181 0.0 2.0 0.00 0.00 0.00 80 1009.5
20260507114118 66 182 1.0 2.0 0.00 0.00 0.00 80 1009.4
20260507113611 66 181 0.0 0.0 0.00 0.00 0.00 79 1009.4
20260507113124 66 181 0.0 0.0 0.00 0.00 0.00 79 1009.4
20260507112635 66 181 0.0 0.0 0.00 0.00 0.00 79 1009.2
20260507112120 66 182 0.0 0.0 0.00 0.00 0.00 79 1009.2
20260507111612 66 182 0.0 0.0 0.00 0.00 0.00 78 1009.2
20260507111120 66 184 0.0 0.0 0.00 0.00 0.00 78 1009.2
20260507110634 66 184 0.0 0.0 0.00 0.00 0.00 78 1009.2
20260507110119 67 184 0.0 0.0 0.00 0.00 0.00 78 1009.2
20260507105630 67 184 0.0 0.0 0.00 0.00 0.00 78 1009.1
20260507105113 67 184 0.0 0.0 0.00 0.00 0.00 78 1009.1
20260507104624 67 185 0.0 0.0 0.00 0.00 0.00 78 1009.1
20260507104136 67 185 0.0 1.0 0.00 0.00 0.00 78 1009.2
20260507103621 67 184 0.0 1.0 0.00 0.00 0.00 78 1009.2
20260507103127 67 185 0.0 2.0 0.00 0.00 0.00 78 1009.2
20260507102651 67 185 1.0 2.0 0.00 0.00 0.00 77 1009.1
20260507102132 67 185 0.0 3.0 0.00 0.00 0.00 77 1009.0
20260507101620 67 184 1.0 3.0 0.00 0.00 0.00 76 1008.9
20260507101130 68 174 1.0 2.0 0.00 0.00 0.00 76 1008.9
20260507100610 68 174 1.0 2.0 0.00 0.00 0.00 75 1008.9
20260507100119 68 174 1.0 3.0 0.00 0.00 0.00 75 1008.9
20260507095625 69 186 1.0 3.0 0.00 0.00 0.00 74 1008.8
20260507095134 69 181 1.0 2.0 0.00 0.00 0.00 73 1008.8
20260507094616 69 167 0.0 1.0 0.00 0.00 0.00 72 1008.8
20260507094126 70 167 1.0 1.0 0.00 0.00 0.00 71 1008.9
20260507093635 70 167 1.0 2.0 0.00 0.00 0.00 70 1008.8
20260507093117 71 91 1.0 3.0 0.00 0.00 0.00 70 1008.7
20260507092627 71 46 2.0 3.0 0.00 0.00 0.00 69 1008.7
20260507092137 71 86 1.0 3.0 0.00 0.00 0.00 68 1008.7
20260507091615 71 77 2.0 3.0 0.00 0.00 0.00 68 1008.8
20260507091125 72 72 2.0 3.0 0.00 0.00 0.00 67 1008.7
20260507090635 72 90 1.0 3.0 0.00 0.00 0.00 66 1008.7
20260507090117 72 83 2.0 4.0 0.00 0.00 0.00 65 1008.8
20260507085626 73 68 2.0 4.0 0.00 0.00 0.00 64 1008.9
20260507085135 73 71 2.0 4.0 0.00 0.00 0.00 65 1008.7
20260507084616 73 84 1.0 4.0 0.00 0.00 0.00 65 1008.8
20260507084125 73 93 2.0 4.0 0.00 0.00 0.00 64 1008.8
20260507083610 73 92 2.0 3.0 0.00 0.00 0.00 64 1008.8
20260507083139 73 93 1.0 3.0 0.00 0.00 0.00 65 1008.8
20260507082627 72 100 1.0 4.0 0.00 0.00 0.00 66 1008.9
20260507082137 72 101 2.0 4.0 0.00 0.00 0.00 66 1008.8
20260507081619 72 86 2.0 4.0 0.00 0.00 0.00 66 1008.8
20260507081129 72 68 2.0 5.0 0.00 0.00 0.00 67 1008.9
20260507080637 72 106 3.0 5.0 0.00 0.00 0.00 67 1008.8
20260507080136 72 55 3.0 5.0 0.00 0.00 0.00 66 1008.9
20260507075621 72 68 2.0 5.0 0.00 0.00 0.00 66 1008.9
20260507075132 72 67 3.0 5.0 0.00 0.00 0.00 66 1008.9
20260507074614 72 86 3.0 5.0 0.00 0.00 0.00 65 1008.9
20260507074124 72 76 3.0 5.0 0.00 0.00 0.00 65 1009.1
20260507073634 72 71 2.0 5.0 0.00 0.00 0.00 66 1009.0
20260507073114 72 131 2.0 5.0 0.00 0.00 0.00 67 1009.1
20260507072613 72 42 3.0 5.0 0.00 0.00 0.00 67 1009.2
20260507072117 72 76 2.0 4.0 0.00 0.00 0.00 67 1009.2
20260507071626 71 67 2.0 4.0 0.00 0.00 0.00 68 1009.2
20260507071136 71 108 0.0 4.0 0.00 0.00 0.00 69 1009.2
20260507070621 71 176 2.0 4.0 0.00 0.00 0.00 69 1009.2
20260507070129 71 96 2.0 5.0 0.00 0.00 0.00 69 1009.2
20260507065612 70 96 2.0 4.0 0.00 0.00 0.00 70 1009.1
20260507065112 71 119 1.0 3.0 0.00 0.00 0.00 70 1009.1
20260507064622 70 101 2.0 5.0 0.00 0.00 0.00 70 1009.2
20260507064128 71 75 2.0 5.0 0.00 0.00 0.00 70 1009.1
20260507063628 71 44 3.0 5.0 0.00 0.00 0.00 69 1009.3
20260507063157 71 72 3.0 5.0 0.00 0.00 0.00 69 1009.3
20260507062618 71 74 1.0 6.0 0.00 0.00 0.00 69 1009.4
20260507062129 71 73 3.0 9.0 0.00 0.00 0.00 69 1009.3
20260507061637 71 68 5.0 9.0 0.00 0.00 0.00 67 1009.4
20260507061118 71 32 3.0 8.0 0.00 0.00 0.00 67 1009.3
20260507060624 71 37 5.0 8.0 0.00 0.00 0.00 67 1009.4
20260507060133 71 27 5.0 8.0 0.00 0.00 0.00 66 1009.4
20260507055612 71 97 5.0 9.0 0.00 0.00 0.00 65 1009.6
20260507055122 71 57 6.0 9.0 0.00 0.00 0.00 67 1009.4
20260507054632 70 98 5.0 8.0 0.00 0.00 0.00 68 1009.5
20260507054113 70 79 5.0 10.0 0.00 0.00 0.00 67 1009.5
20260507053610 70 63 6.0 10.0 0.00 0.00 0.00 67 1009.6
20260507053117 70 56 5.0 10.0 0.00 0.00 0.00 67 1009.6
20260507052623 70 72 4.0 10.0 0.00 0.00 0.00 67 1009.7
20260507052118 70 84 5.0 10.0 0.00 0.00 0.00 66 1009.7
20260507051628 71 17 6.0 10.0 0.00 0.00 0.00 64 1009.7
20260507051136 71 62 5.0 8.0 0.00 0.00 0.00 65 1009.7
20260507050619 72 60 4.0 9.0 0.00 0.00 0.00 64 1010.0
20260507050126 72 62 4.0 12.0 0.00 0.00 0.00 64 1010.2
20260507045636 72 51 4.0 12.0 0.00 0.00 0.00 63 1010.3
20260507045114 72 92 4.0 9.0 0.00 0.00 0.00 63 1010.4
20260507044636 72 76 4.0 9.0 0.00 0.00 0.00 63 1010.2
20260507044118 72 86 3.0 9.0 0.00 0.00 0.00 63 1010.3
20260507043641 72 349 4.0 9.0 0.00 0.00 0.00 62 1010.3
20260507043129 72 112 4.0 10.0 0.00 0.00 0.00 63 1010.3
20260507042612 72 338 4.0 9.0 0.00 0.00 0.00 62 1010.3
20260507042112 72 59 4.0 8.0 0.00 0.00 0.00 63 1010.3
20260507041617 72 56 5.0 10.0 0.00 0.00 0.00 63 1010.3
20260507041125 71 37 6.0 10.0 0.00 0.00 0.00 64 1010.4
20260507040636 71 30 5.0 9.0 0.00 0.00 0.00 63 1010.6
20260507040116 71 22 4.0 9.0 0.00 0.00 0.00 65 1010.7
20260507035627 71 72 5.0 10.0 0.00 0.00 0.00 64 1010.7
20260507035126 71 65 5.0 9.0 0.00 0.00 0.00 64 1010.9
20260507034635 71 60 5.0 9.0 0.00 0.00 0.00 64 1010.8
20260507034117 71 20 5.0 9.0 0.00 0.00 0.00 64 1010.9
20260507033621 71 87 3.0 8.0 0.00 0.00 0.00 65 1011.0
20260507033130 70 24 4.0 9.0 0.00 0.00 0.00 65 1011.0
20260507032612 70 62 4.0 9.0 0.00 0.00 0.00 67 1011.1
20260507032121 70 34 5.0 8.0 0.00 0.00 0.00 64 1011.1
20260507031652 70 67 5.0 7.0 0.00 0.00 0.00 65 1011.0
20260507031113 71 14 4.0 7.0 0.00 0.00 0.00 64 1011.1
20260507030613 71 93 4.0 7.0 0.00 0.00 0.00 64 1011.2
20260507030137 70 60 4.0 7.0 0.00 0.00 0.00 65 1011.3
20260507025133 69 73 5.0 8.0 0.00 0.00 0.00 66 1011.5
20260507024615 70 62 5.0 8.0 0.00 0.00 0.00 65 1011.6
20260507024124 70 78 5.0 8.0 0.00 0.00 0.00 65 1011.7
20260507023634 70 37 4.0 8.0 0.00 0.00 0.00 65 1011.6
20260507023112 70 32 3.0 7.0 0.00 0.00 0.00 65 1011.7
20260507022623 69 29 3.0 9.0 0.00 0.00 0.00 66 1011.8
20260507022112 69 68 5.0 9.0 0.00 0.00 0.00 66 1011.8
20260507021618 70 28 6.0 8.0 0.00 0.00 0.00 65 1012.0
20260507021129 70 56 6.0 8.0 0.00 0.00 0.00 64 1012.1
20260507020613 70 82 3.0 7.0 0.00 0.00 0.00 64 1012.1
20260507020122 69 98 3.0 7.0 0.00 0.00 0.00 66 1012.1
20260507015616 69 46 4.0 9.0 0.00 0.00 0.00 66 1012.2
20260507015125 69 77 5.0 9.0 0.00 0.00 0.00 65 1012.3
20260507014614 69 41 3.0 7.0 0.00 0.00 0.00 67 1012.3
20260507014120 68 29 3.0 8.0 0.00 0.00 0.00 67 1012.3
20260507013629 69 89 5.0 8.0 0.00 0.00 0.00 66 1012.5
20260507013112 68 3 4.0 7.0 0.00 0.00 0.00 68 1012.7
20260507012621 68 71 3.0 8.0 0.00 0.00 0.00 69 1012.7
20260507012129 68 82 5.0 9.0 0.00 0.00 0.00 68 1012.7
20260507011612 69 39 5.0 8.0 0.00 0.00 0.00 66 1012.7
20260507011122 69 68 4.0 8.0 0.00 0.00 0.00 66 1012.8
20260507010612 69 37 4.0 6.0 0.00 0.00 0.00 66 1012.8
20260507010137 69 79 2.0 7.0 0.00 0.00 0.00 68 1012.7
20260507005624 68 57 2.0 5.0 0.00 0.00 0.00 70 1012.7
20260507005133 68 104 2.0 5.0 0.00 0.00 0.00 69 1012.7
20260507004616 67 136 1.0 5.0 0.00 0.00 0.00 71 1012.8
20260507004124 66 59 3.0 5.0 0.00 0.00 0.00 71 1013.0
20260507003635 66 83 2.0 5.0 0.00 0.00 0.00 72 1013.0
20260507003134 66 83 1.0 3.0 0.00 0.00 0.00 73 1013.0
20260507002613 65 95 1.0 4.0 0.00 0.00 0.00 74 1013.2
20260507002124 65 83 2.0 4.0 0.00 0.00 0.00 73 1013.1
20260507001633 65 113 1.0 3.0 0.00 0.00 0.00 74 1013.0
20260507001113 65 97 1.0 4.0 0.00 0.00 0.00 74 1013.1
20260507000624 65 94 2.0 4.0 0.00 0.00 0.00 74 1013.0
20260507000133 65 76 2.0 6.0 0.00 0.00 0.00 74 1012.9
20260506235634 65 51 3.0 6.0 0.00 0.00 0.00 74 1013.0
20260506235116 65 65 2.0 6.0 0.00 0.00 0.00 74 1013.1
20260506234622 65 29 2.0 8.0 0.00 0.00 0.00 75 1013.1
20260506234134 65 55 4.0 8.0 0.00 0.00 0.00 74 1013.2
20260506233618 65 104 5.0 8.0 0.00 0.00 0.00 74 1013.1
20260506233127 65 68 4.0 7.0 0.00 0.00 0.00 75 1013.1
20260506232635 64 92 2.0 7.0 0.00 0.00 0.00 77 1013.1
20260506232117 64 51 3.0 7.0 0.00 0.00 0.00 78 1013.0
20260506231647 64 79 3.0 9.0 0.00 0.00 0.00 79 1013.1
20260506231133 64 114 5.0 9.0 0.00 0.00 0.00 79 1013.0
20260506230616 64 322 5.0 8.0 0.00 0.00 0.00 79 1013.0
20260506230145 64 75 3.0 8.0 0.00 0.00 0.00 80 1013.1
20260506225655 64 45 3.0 7.0 0.00 0.00 0.00 80 1013.3
20260506225117 64 65 4.0 7.0 0.00 0.00 0.00 80 1013.3
20260506224647 64 60 4.0 8.0 0.00 0.00 0.00 81 1013.3
20260506224136 64 65 4.0 8.0 0.00 0.00 0.00 80 1013.2
20260506223639 65 58 3.0 5.0 0.00 0.00 0.00 80 1013.2
20260506223122 65 75 2.0 4.0 0.00 0.00 0.00 80 1013.2
20260506222631 65 56 2.0 3.0 0.00 0.00 0.00 80 1013.1
20260506222113 64 84 2.0 3.0 0.00 0.00 0.00 81 1013.1
20260506221623 64 290 1.0 3.0 0.00 0.00 0.00 82 1013.1
20260506221131 64 104 0.0 2.0 0.00 0.00 0.00 83 1013.2
20260506220614 63 124 0.0 2.0 0.00 0.00 0.00 84 1013.2
20260506220111 63 180 0.0 1.0 0.00 0.00 0.00 86 1013.2
20260506215621 62 180 0.0 0.0 0.00 0.00 0.00 87 1013.2
20260506215126 62 180 0.0 0.0 0.00 0.00 0.00 89 1013.2